"Pseudo-MPEC" for C9J6CL2

Created 2023 Sep 21 11:22:15 UT using Find_Orb

Click here for an explanation of pseudo-MPECs

 
 Astrometry: 
     C9J6CL2*1C2023 09 19.38288903 06 05.476+00 13 04.51   ~9JA7 19.72GVNEOCPG96
     C9J6CL2 1C2023 09 19.38807803 06 05.710+00 12 05.22   ~9JA7 21.32GVNEOCPG96
     C9J6CL2 1C2023 09 19.39328103 06 05.987+00 11 05.57   ~9JA7 19.88GVNEOCPG96
     C9J6CL2 1C2023 09 19.39847203 06 06.232+00 10 05.74   ~9JA7 20.16GVNEOCPG96
     C9J6CL2 mC2023 09 19.45942603 06 09.097-00 01 32.77   ~9JBM 20.46GVNEOCPV06
     C9J6CL2 mC2023 09 19.45966403 06 09.112-00 01 35.54   ~9JBM 20.31GVNEOCPV06
     C9J6CL2 mC2023 09 19.45990103 06 09.112-00 01 38.10   ~9JBM 20.46GVNEOCPV06
     C9J6CL2 mC2023 09 19.46013903 06 09.130-00 01 41.12   ~9JBM 20.89GVNEOCPV06
     C9J6CL2 1C2023 09 20.10059 03 07 04.02 -02 02 22.2    ~9K8M 20.6 VXNEOCP033
     C9J6CL2 1C2023 09 20.10140 03 07 04.04 -02 02 30.9    ~9K8M 20.1 VXNEOCP033
     C9J6CL2 1C2023 09 20.10813 03 07 04.40 -02 03 46.1    ~9K8M 19.9 VXNEOCP033
     C9J6CL2 1C2023 09 20.10917 03 07 04.43 -02 03 57.5    ~9K8M 20.2 VXNEOCP033
     C9J6CL2 1C2023 09 20.11022 03 07 04.49 -02 04 09.2    ~9K8M 20.9 VXNEOCP033
     C9J6CL2 KC2023 09 20e!%)H@.4U;bjqo]p4R6c+`.Ey2?b8n(:s12uQtd`5P-OgW=sm'$T858
     C9J6CL2 KC2023 09 205$-Astrometry!Cp:kx.?/tn:nX*8+khLH+Fof$#V(1redacted;H21
     C9J6CL2 KC2023 09 20W%'qqYY6hS*\H=6RUAwwHE)HnclickoLrhere%U]]Z.+whA?A!iCH21
     C9J6CL2 KC2023 09 207uR3rP[q3)@\/lbOESmS^DAZcc`,]/(5BT?WR:F5J8whgBu4OZ2q858
     C9J6CL2 KC2023 09 20:u4m@]Ly1lV7Dq]3uO0=pR9^\spSgkAA8aX:*mOvJ@uuW.J,sgVKH21
     C9J6CL2 KC2023 09 20:-S0:@forU[amw?a;$UexplanationDTYd)Tu8$'1E]6LQxYalTNH21
     C9J6CL2 1C2023 09 20.40431403 07 29.816-02 57 36.83   ~9KAM 20.49GVNEOCPG96
     C9J6CL2 1C2023 09 20.40951403 07 29.964-02 58 34.39   ~9KAM 21.14GVNEOCPG96
     C9J6CL2 1C2023 09 20.41471703 07 30.205-02 59 30.73   ~9KAM 19.85GVNEOCPG96
     C9J6CL2 1C2023 09 20.41992803 07 30.436-03 00 27.97   ~9KAM 21.68GVNEOCPG96
     C9J6CL2 1C2023 09 21.10773 03 08 21.24 -05 03 39.1    ~9L3M 19.9 VXNEOCP033
     C9J6CL2 1C2023 09 21.10866 03 08 21.25 -05 03 47.8    ~9L3M 20.1 VXNEOCP033
     C9J6CL2 1C2023 09 21.10958 03 08 21.27 -05 03 57.9    ~9L3M 19.9 VXNEOCP033

Station data:
(033) Karl Schwarzschild Observatory, Tautenburg  (N50.980137 E11.711240)
   Germany.  Observer B. Stecklum. 1.34-m f/3 Schmidt + CCD.
(858) Tebbutt Observatory, Edgewood  (N35.093869 W106.220000)  US/New Mexico.
    Observer F. B. Zoltowski. 0.16-m refractor + CCD0.51-m Schmidt-Cassegrain
   + CCD.
(G96) Mt. Lemmon Survey  (N32.442751 W110.788720)  US/Arizona.  Observer E.
   J. Christensen. 1.5-m reflector + 10K CCD.
(H21) Astronomical Research Observatory, Westfield  (N39.483054 W87.968270)
   US/Illinois.  Observer R. Holmes. Measurers S. Foglia, L. Buzzi, T.
   Linder, R. Holmes. 0.76-m f/3.0 astrograph + CCD0.81-m f/4.0 astrograph +
   CCD0.61-m f/4.5 astrograph + CCD0.40-m f/5.32 astrograph + CCD.
(V06) Catalina Sky Survey-Kuiper  (N32.416844 W110.732550)  US/Arizona.
   Observers T. A. Pruyne, B. M. Africano, E. J. Christensen, G. A. Farneth,
   D. C. Fuls, A. R. Gibbs, A. D. Grauer, H. Gröller, J. A. Johnson, R. A.
   Kowalski, S. M. Larson, G. J. Leonard, D. Rankin, R. L. Seaman, F. C.
   Shelly, K. W. Wierzchoś. 1.55-m reflector + CCD.

Orbital elements:  C9J6CL2
   Perihelion 2023 Aug 4.75747 +/- 0.0676 TT = 18:10:45 (JD 2460161.25747)
Epoch 2023 Sep 21.0 TT = JDT 2460208.5   Earth MOID: 0.0395      AutoNEOCP
M  36.46116680 +/- 0.10             (J2000 ecliptic)
n   0.77178698 +/- 0.00124          Peri.  138.95009 +/- 0.058
a   1.17707575 +/- 0.00126          Node   174.36287 +/- 0.012
e   0.1365818 +/- 0.000863          Incl.   14.76842 +/- 0.057
P   1.28/466.44d           H 24.33  G  0.15   U  8.2
q 1.01630852 +/- 7.31e-5    Q 1.33784298 +/- 0.00245
From 26 observations 2023 Sept. 19-21 (41.4 hr); mean residual 0".25
Residuals in arcseconds: 
230919 G96  .13+  .03-    230920 033  .30-  .53+    230920 H21  .32-  .17-    
230919 G96  .22-  .25+    230920 033  .06-  .07-    230920 G96  .27+  .48+    
230919 G96  .10+  .31+    230920 033  .41-  .05+    230920 G96  .57-  .28-    
230919 G96  .01-  .05+    230920 033  .31-  .01-    230920 G96  .01+  .18+    
230919 V06  .11+  .10-    230920 858  .30+  .07-    230920 G96  .46+  .18-    
230919 V06  .17+  .15-    230920 H21  .01-  .06+    230921 033  .49+  .54-    
230919 V06  .01+  .00     230920 H21  .03-  .03+    230921 033  .05+  .53+    
230919 V06  .11+  .30-    230920 858  .01-  .24-    230921 033  .24-  .10+    
230920 033  .02+  .25+    230920 H21  .04-  .20-    

Ephemerides (geocentric):
Date (UTC) HH   RA             Dec           delta  r     elong  mag " sig PA
---- --------  ------------   ------------  ------ ------ -----  --- --------
2023 09 21 11  03 08 46.268   -06 02 54.54  .07952 1.0577 130.7 20.7 .367 167
2023 09 21 12  03 08 49.149   -06 10 03.30  .07962 1.0578 130.7 20.7 .369 167
2023 09 21 13  03 08 52.015   -06 17 11.04  .07971 1.0578 130.7 20.7 .371 167
2023 09 21 14  03 08 54.866   -06 24 17.76  .07980 1.0579 130.7 20.7 .372 167
2023 09 21 15  03 08 57.702   -06 31 23.46  .07990 1.0580 130.8 20.7 .374 167
2023 09 21 16  03 09 00.524   -06 38 28.14  .07999 1.0580 130.8 20.7 .375 167
2023 09 21 17  03 09 03.330   -06 45 31.80  .08009 1.0581 130.8 20.7 .377 166
2023 09 21 18  03 09 06.122   -06 52 34.44  .08018 1.0582 130.8 20.7 .379 166
2023 09 21 19  03 09 08.899   -06 59 36.05  .08028 1.0582 130.8 20.7 .380 166
2023 09 21 20  03 09 11.661   -07 06 36.63  .08037 1.0583 130.8 20.7 .382 166
2023 09 21 21  03 09 14.408   -07 13 36.20  .08047 1.0584 130.8 20.7 .383 166
2023 09 21 22  03 09 17.141   -07 20 34.74  .08057 1.0585 130.9 20.7 .385 165
2023 09 21 23  03 09 19.860   -07 27 32.25  .08066 1.0585 130.9 20.7 .387 165
2023 09 22 00  03 09 22.563   -07 34 28.74  .08076 1.0586 130.9 20.7 .388 165
2023 09 22 01  03 09 25.253   -07 41 24.21  .08086 1.0587 130.9 20.7 .390 165
2023 09 22 02  03 09 27.927   -07 48 18.65  .08096 1.0587 130.9 20.7 .391 165
2023 09 22 03  03 09 30.588   -07 55 12.06  .08106 1.0588 130.9 20.7 .393 165
2023 09 22 04  03 09 33.233   -08 02 04.45  .08115 1.0589 130.9 20.7 .394 164
2023 09 22 05  03 09 35.865   -08 08 55.81  .08125 1.0589 130.9 20.7 .396 164
2023 09 22 06  03 09 38.482   -08 15 46.14  .08135 1.0590 130.9 20.7 .397 164
2023 09 22 07  03 09 41.085   -08 22 35.45  .08145 1.0591 131.0 20.7 .399 164
2023 09 22 08  03 09 43.673   -08 29 23.74  .08155 1.0591 131.0 20.7 .400 164
2023 09 22 09  03 09 46.247   -08 36 11.00  .08165 1.0592 131.0 20.8 .401 163
2023 09 22 10  03 09 48.807   -08 42 57.23  .08176 1.0593 131.0 20.8 .403 163
2023 09 22 11  03 09 51.353   -08 49 42.44  .08186 1.0593 131.0 20.8 .404 163
2023 09 22 12  03 09 53.884   -08 56 26.62  .08196 1.0594 131.0 20.8 .406 163
2023 09 22 13  03 09 56.402   -09 03 09.78  .08206 1.0595 131.0 20.8 .407 163
2023 09 22 14  03 09 58.905   -09 09 51.91  .08216 1.0595 131.0 20.8 .409 162
2023 09 22 15  03 10 01.395   -09 16 33.01  .08226 1.0596 131.0 20.8 .410 162
2023 09 22 16  03 10 03.870   -09 23 13.10  .08237 1.0597 131.0 20.8 .412 162
2023 09 22 17  03 10 06.331   -09 29 52.15  .08247 1.0597 131.0 20.8 .413 162
2023 09 22 18  03 10 08.778   -09 36 30.19  .08257 1.0598 131.0 20.8 .414 161
2023 09 22 19  03 10 11.212   -09 43 07.20  .08268 1.0599 131.1 20.8 .416 161
2023 09 22 20  03 10 13.631   -09 49 43.18  .08278 1.0600 131.1 20.8 .417 161
2023 09 22 21  03 10 16.037   -09 56 18.15  .08289 1.0600 131.1 20.8 .419 161
2023 09 22 22  03 10 18.429   -10 02 52.09  .08299 1.0601 131.1 20.8 .420 161
2023 09 22 23  03 10 20.807   -10 09 25.01  .08310 1.0602 131.1 20.8 .422 160
2023 09 23 00  03 10 23.171   -10 15 56.91  .08320 1.0602 131.1 20.8 .423 160
2023 09 23 01  03 10 25.522   -10 22 27.79  .08331 1.0603 131.1 20.8 .424 160
2023 09 23 02  03 10 27.859   -10 28 57.64  .08341 1.0604 131.1 20.8 .426 160
2023 09 23 03  03 10 30.182   -10 35 26.48  .08352 1.0604 131.1 20.8 .427 159
2023 09 23 04  03 10 32.491   -10 41 54.30  .08363 1.0605 131.1 20.8 .429 159
2023 09 23 05  03 10 34.787   -10 48 21.10  .08373 1.0606 131.1 20.8 .430 159
2023 09 23 06  03 10 37.069   -10 54 46.88  .08384 1.0606 131.1 20.8 .432 159
2023 09 23 07  03 10 39.338   -11 01 11.65  .08395 1.0607 131.1 20.8 .433 158
2023 09 23 08  03 10 41.594   -11 07 35.40  .08406 1.0608 131.1 20.8 .435 158
2023 09 23 09  03 10 43.835   -11 13 58.13  .08416 1.0608 131.1 20.8 .436 158
2023 09 23 10  03 10 46.064   -11 20 19.85  .08427 1.0609 131.1 20.8 .437 158